Regional Weather Roundup
Issued by NWS

Home | Current Version | Previous Version | Text Only | Print | Product List | Glossary Off
Versions: 1 2 3 4 5 6 7 8 9 10 11 12 13 14 15 16 17 18 19 20 21 22 23 24 25 26 27 28 29 30 31 32 33 34 35 36 37 38 39 40 41 42 43 44 45 46 47 48 49 50

982
ASUS45 KBOU 291907
RWRCO

WEATHER ROUNDUP FOR COLORADO
NATIONAL WEATHER SERVICE DENVER/BOULDER CO
100 PM MDT MON MAY 29 2017

NOTE: "FAIR" INDICATES FEW OR NO CLOUDS BELOW 12000 FEET WITH NO
SIGNIFICANT WEATHER AND/OR OBSTRUCTIONS TO VISIBILITY.

COZ001>005-013-030-031-292000-
...NORTHWEST COLORADO...

CITY           SKY/WX    TMP DP  RH WIND       PRES   REMARKS
CRAIG          FAIR      69  33  26 NW8       30.25F
HAYDEN         FAIR      64  32  29 W8G16     30.26F
MEEKER         PTSUNNY   68  28  22 VRB5      30.24F
RABBIT EARS PA FAIR      50  28  43 W7        30.44S
STEAMBOAT SPGS CLOUDY    55  38  53 N10       30.28R
WALDEN           N/A     46  32  57 NW20G31   30.39R
$$

COZ006>008-011-292000-
...WEST CENTRAL VALLEYS...

CITY           SKY/WX    TMP DP  RH WIND       PRES   REMARKS
GRAND JUNCTION FAIR      78  25  14 MISG      30.13F
MONTROSE       FAIR      73  21  14 NW8       30.19F
EAGLE          MOSUNNY   68  25  19 SE8       30.25F
RIFLE          FAIR      75  22  13 VRB5      30.17F
DELTA          FAIR      78  21  11 SW9       30.16F
NUCLA          FAIR      73  21  14 W7        30.22F
$$

COZ017>023-064>068-292000-
...SOUTHWEST COLORADO...

CITY           SKY/WX    TMP DP  RH WIND       PRES   REMARKS
DURANGO        FAIR      72  11   9 SW8G20    30.22F
CORTEZ         FAIR      75  14  10 CALM      30.18F
PAGOSA SPRINGS FAIR      68   7   9 SW8G17    30.29S
TELLURIDE      FAIR      62  12  14 S9        30.36F
WOLF CREEK PAS FAIR      45  18  33 S14G23    30.55S
$$

COZ009-010-012-014-032>034-037-058>063-292000-
...CENTRAL COLORADO...

CITY           SKY/WX    TMP DP  RH WIND       PRES   REMARKS
ASPEN          FAIR      65  18  16 NW12      30.27F
BUENA VISTA    FAIR      63  22  21 CALM      30.28F
COPPER MTN     CLOUDY    45  16  31 S3        30.50S
BERTHOUD PASS  CLOUDY    36  27  69 N6G20     30.51F
COTTONWOOD PAS CLOUDY    57  21  24 CALM      30.38F
GUNNISON       FAIR      64  22  20 VRB3      30.27F
KREMMLING      FAIR      66  28  24 CALM      30.29F
LEADVILLE      PTSUNNY   51  12  21 CALM      30.36F
MONARCH PASS   FAIR      46  12  25 NW6G18    30.60S
SALIDA         FAIR      68  24  18 SW3       30.32F
SUNLIGHT       PTSUNNY   45  19  36 CALM      30.48F
WILKERSON PASS FAIR      48  19  32 CALM      30.49S
$$

COZ069>075-292000-
...SAN LUIS VALLEY/SANGRE DE CRISTO MOUNTAINS...

CITY           SKY/WX    TMP DP  RH WIND       PRES   REMARKS
ALAMOSA        FAIR      67  22  18 VRB3      30.26F
DEL NORTE      FAIR      65  28  24 SE8       30.28F
LA VETA PASS   CLOUDY    46  32  57 NE9G25    30.53S
SAGUACHE       FAIR      66  23  19 S9G17     30.28F
$$

COZ035-036-038>040-292000-
...NORTHERN COLORADO FRONT RANGE...

CITY           SKY/WX    TMP DP  RH WIND       PRES   REMARKS
DENVER INTL AP FAIR      65  42  43 E6        30.23F
DMNS CITY PARK   N/A     66  37  33 N16       30.20F
AURORA         PTSUNNY   68  40  36 E8        30.23F
FRONT RANGE AP PTSUNNY   66  45  45 E8G17     30.25
ERIE MUNI ARPT FAIR      66  37  34 NE3       30.23S
BOULDER MUN AP LGT RAIN  63  39  42 NE6       30.23S
CENTENNIAL     FAIR      66  39  37 CALM      30.23F
BROOMFIELD     PTSUNNY   68  39  34 NE9       30.24F
FORT COLLINS   FAIR      65  42  43 VRB3      30.24S
LONGMONT       LGT RAIN  69  44  39 N9        30.25S
$$

COZ041-046-047-076>085-087-088-292000-
...PIKES PEAK/PALMER DIVIDE AND SOUTHERN FOOTHILLS...

CITY           SKY/WX    TMP DP  RH WIND       PRES   REMARKS
COLO. SPRINGS  FAIR      65  39  38 S13       30.27F
A. F. ACADEMY  PTSUNNY   63  37  39 S15       30.26F
SCHRIEVER AFB  FAIR      64  36  35 S10G20    30.27F
CHEYENNE MTN   PTSUNNY   55  39  55 S9        30.24F
ELLICOTT       FAIR     N/A N/A N/A S12G20    30.25F
FALCON         NOT AVBL
FORT CARSON    NOT AVBL
LIMON          FAIR      67  43  41 CALM      30.24F
MONUMENT HILL  PTSUNNY   59  37  44 SE13      30.29F
CANON CITY     NOT AVBL
WALSENBURG     FAIR      68  39  34 CALM      30.25F
TRINIDAD       FAIR      70  39  32 N8        30.21F
$$

COZ042>045-048>051-090-091-292000-
...NORTHEAST COLORADO...

CITY           SKY/WX    TMP DP  RH WIND       PRES   REMARKS
GREELEY ARPT   PTSUNNY   71  43  36 E7        30.22F
AKRON          FAIR      68  40  35 MISG      30.22F
BURLINGTON     FAIR      70  41  34 NE8       30.21F
WRAY           FAIR      75  36  23 N7        30.18F
YUMA           MOCLDY    68  27  21 NW13      30.19F
STERLING       NOT AVBL
HOLYOKE        NOT AVBL
FORT MORGAN    PTSUNNY   69  36  29 NW6       30.22F
$$

COZ086-089-092>099-292000-
...SOUTHEAST COLORADO...

CITY           SKY/WX    TMP DP  RH WIND       PRES   REMARKS
PUEBLO         FAIR      71  41  33 S10       30.20F
LA JUNTA       FAIR      72  44  36 E10       30.19F
LAMAR          FAIR      74  44  34 SE6       30.17F
SPRINGFIELD      N/A     71  41  33 SE8G16    30.18F
$$




USA.gov is the U.S. government's official web portal to all federal, state and local government web resources and services.